Weather in Panama City

United States     30°09′30″N   85°39′38″W
temp.,
°C
wind,
m/s
gust,
m/s
humid.,
%
clouds,
%
prec.,
mm/h
press.,
hPa
HPBL,
m
26 may, thu
thu2601:00+21se2892100 5.6 1016234
04:00+22ese31089100 1.8 1016337
07:00+24sse41186100 3.5 1016538
10:00+27s71178100 1.1 10171160
13:00+28s8117599 6.0 10161129
16:00+27ssw7107546 4.5 10141068
19:00+25sw51080100 11.4 1014639
22:00+23sw248791 4.3 1015149
27 may, fri
fri2701:00+23wsw358936 7.8 1014179
04:00+22wnw12940 1.0 101354
07:00+23w12840 1.0 1014117
10:00+28w45470 0.0 10151115
13:00+30wsw58380 0.0 10141763
16:00+29wsw68420 0.0 10131412
19:00+26wsw48630 0.0 1013592
22:00+24wsw36725 0.0 1013270
28 may, sat
sat2801:00+23nnw237718 0.1 1013114
04:00+21n22640 0.0 101252
07:00+21ne24620 0.0 1013141
10:00+28nne22410 0.0 1014938
13:00+31sw22340 0.0 10132129
16:00+30sw54380 0.0 10121096
19:00+27sw34500 0.0 1012305
22:00+24wsw22650 0.0 101450
29 may, sun
sun2901:00+23wnw11670 0.0 101329
04:00+22ne11690 0.0 101322
07:00+23e23650 0.0 1015111
10:00+29sse33470 0.0 10151276
13:00+31s55420 0.0 10151738
16:00+30ssw45430 0.0 10141128
19:00+27sw34570 0.0 1015535
22:00+24wsw12700 0.0 101643
30 may, mon
mon3001:00+23ese11750 0.0 101735
04:00+22e22770 0.0 101761
07:00+23e23670 0.0 1018129
10:00+29se34480 0.0 1019972
13:00+33s34422 0.0 10181915
16:00+31ssw56530 0.1 1017776
19:00+28nw226593 0.1 1018480
22:00+24ene226632 0.2 101994